Overview Statistics Trail Chart Weather Telemetry Raw packets
 

This is the latest recevied weather packets stored in our database for station/object F4MZI-13. If no packets are shown the sender has not sent any weather packets the latest 10 day(s).

<< 54 55 56 57 58 >>
Time Temp. Humidity Pressure Rain* Wind** Luminosity Snow
1787861699 19.44° C 70% 1008 hPa 0.25 mm - - -
1787861099 19.44° C 70% 1008 hPa 0 mm - - -
1787860499 19.44° C 70% 1009 hPa 0 mm - - -
1787859898 20° C 70% 1009 hPa 0 mm - - -
1787859298 20° C 70% 1009 hPa 0 mm - - -
1787858698 20° C 70% 1008 hPa 0 mm - - -
1787858098 20° C 70% 1008 hPa 0 mm - - -
1787857498 20° C 70% 1008 hPa 0 mm - - -
1787856897 24.44° C 68% 1008 hPa 0 mm - - -
1787856297 25.56° C 62% 1008 hPa 0 mm - - -
1787855697 25.56° C 62% 1008 hPa 0 mm - - -
1787855097 25.56° C 59% 1007 hPa 0.25 mm - - -
1787854498 25.56° C 58% 1007 hPa 0.25 mm - - -
1787853897 26.11° C 56% 1007 hPa 0 mm - - -
1787853296 26.11° C 56% 1007 hPa 0 mm - - -
1787852696 26.67° C 51% 1007 hPa 0 mm - - -
1787852096 26.67° C 51% 1007 hPa 0 mm - - -
1787851496 26.67° C 51% 1007 hPa 0 mm - - -
1787850896 26.67° C 51% 1007 hPa 0 mm - - -
1787850296 26.67° C 52% 1007 hPa 0 mm - - -
1787849695 26.67° C 52% 1007 hPa 0 mm - - -
1787849095 26.67° C 53% 1007 hPa 0 mm - - -
1787848495 26.67° C 53% 1007 hPa 0 mm - - -
1787847895 27.22° C 53% 1007 hPa 0 mm - - -
1787847295 27.78° C 53% 1007 hPa 0 mm - - -

* Rain latest hour (hover to see other rain measurements)
** Current wind speed in m/s (hover to see current wind gust speed)